Regional Weather Roundup
Issued by NWS

Home | Current Version | Previous Version | Graphics & Text | Print | Product List | Glossary Off
Versions: 1 2 3 4 5 6 7 8 9 10 11 12 13 14 15 16 17 18 19 20 21 22 23 24 25 26 27 28 29 30 31 32 33 34 35 36 37 38 39 40 41 42 43 44 45 46 47 48 49 50

000
ASUS43 KDTX 252110
RWRMI
MICHIGAN HOURLY REGIONAL WEATHER ROUNDUP
NATIONAL WEATHER SERVICE DETROIT/PONTIAC MI
500 PM EDT FRI JUL 25 2014

NOTE: "FAIR" INDICATES FEW OR NO CLOUDS BELOW 12,000 FEET WITH NO
SIGNIFICANT WEATHER AND/OR OBSTRUCTION TO VISIBILITY.

MIZ047>049-052>055-059>063-066>070-074>076-081>083-252200-
SOUTHEAST LOWER MICHIGAN

CITY           SKY/WX    TMP DP  RH WIND       PRES   REMARKS
ADRIAN         MOSUNNY   76  52  43 W9        29.98F
ALMA           CLOUDY    73  53  49 SW5       29.96F
ANN ARBOR      PTSUNNY   76  52  43 W10       29.97F
BAD AXE        PTSUNNY   74  50  42 SW7       29.96F
DETROIT CITY   PTSUNNY   78  52  40 SW12      29.97F
DETROIT        PTSUNNY   76  52  43 S12       29.97F
FLINT          PTSUNNY   75  52  44 SW8       29.97F
GROSSE ILE     PTSUNNY   73  55  53 S13       29.96F
HILLSDALE      PTSUNNY   74  53  46 SW8       29.99F
HOWELL         CLOUDY    74  49  40 SW10      29.98S

CITY           SKY/WX    TMP DP  RH WIND       PRES   REMARKS
JACKSON        CLOUDY    74  54  49 W9        29.98F
LAMBERTVILLE   MOSUNNY   79  52  38 SW9       29.98F
LANSING        CLOUDY    74  54  49 SW7       29.97F
LAPEER         NOT AVBL
MASON          CLOUDY    74  53  48 SW7       29.98S
MONROE         MOSUNNY   77  52  41 SW10      29.97S
MT. CLEMENS    PTSUNNY   75  58  55 SE12      29.95F
PONTIAC        PTSUNNY   76  50  40 SW8G23    29.97F
PORT HOPE        N/A     70  59  68 E12       29.94F
PORT HURON     PTSUNNY   75  57  53 S10G17    29.97F
TRI CITIES     CLOUDY    76  55  48 W10       29.97S
YPSILANTI      PTSUNNY   81  52  36 S12       29.97F
$$
MIZ043>046-050>051-056>058-064>065-071>073-077>080-252200-
SOUTHWEST LOWER MICHIGAN

CITY           SKY/WX    TMP DP  RH WIND       PRES   REMARKS
BATTLE CREEK   CLOUDY    74  53  48 SW9       29.99F
BENTON HARBOR  CLOUDY    72  56  57 W10       29.99R
BIG RAPIDS     CLOUDY    71  53  53 SW7       29.96S
COLDWATER      CLOUDY    73  56  56 W7        29.99S
HOLLAND        CLOUDY    73  57  57 SW8       29.99S
GRAND RAPIDS   CLOUDY    75  56  51 S10       29.97F
KALAMAZOO      CLOUDY    72  54  53 SW8       29.99R
MARSHALL       CLOUDY    73  55  52 SW8       29.98S
MUSKEGON       CLOUDY    73  56  54 SW14      29.97S
$$
MIZ016>042-252200-
NORTHERN LOWER MICHIGAN

CITY           SKY/WX    TMP DP  RH WIND       PRES   REMARKS
ALPENA         PTSUNNY   78  57  48 SW7       29.89F
BEAVER ISLAND  MOSUNNY   69  58  67 SW15G22   29.91S
BELLAIRE       PTSUNNY   76  56  50 SW12G22   29.92R
CADILLAC       CLOUDY    70  57  64 SW13      29.96S
CHARLEVOIX     PTSUNNY   74  57  55 W15       29.94S
FRANKFORT      CLOUDY    71  53  53 S12G17    29.93F
GAYLORD        PTSUNNY   74  55  51 SW10      29.93F
GRAYLING       CLOUDY    74  56  51 SW10      29.94S
HARBOR SPRINGS CLOUDY    71  56  59 W12G20    29.91S
HOUGHTON LAKE  CLOUDY    73  57  57 SW9       29.95F
MANISTEE       CLOUDY    68  54  60 S8        29.95F
OSCODA         PTSUNNY   75  53  44 SW15      29.92F
PELLSTON       MOSUNNY   74  57  55 W13G20    29.91S
TRAVERSE CITY  CLOUDY    72  56  57 SW7       29.92S
$$
MIZ007>008-015-252200-
EASTERN UPPER MICHIGAN

CITY           SKY/WX    TMP DP  RH WIND       PRES   REMARKS
KINROSS        CLOUDY    68  61  77 SW9       29.88S
MACKINAC ISLAN CLOUDY    68  58  70 W14G23    29.90S
NEWBERRY       MOSUNNY   74  58  58 SW13G25   29.86S
S. S. MARIE    PTSUNNY   75  58  55 SW15      29.85S
$$
MIZ004>006-011>014-085-252200-
CENTRAL UPPER MICHIGAN

CITY           SKY/WX    TMP DP  RH WIND       PRES   REMARKS
MANISTIQUE     MOSUNNY   63  57  82 S14G22    29.88S
ESCANABA       CLOUDY    68  57  68 S14       29.86F
MENOMINEE      MOSUNNY   73  57  56 SW18      29.86S
SAWYER-GWINN   CLOUDY    73  55  53 SW13G18   29.85F
$$
MIZ001>003-009>011-084-252200-
WESTERN UPPER MICHIGAN

CITY           SKY/WX    TMP DP  RH WIND       PRES   REMARKS
IRON MOUNTAIN  CLOUDY    72  60  66 SW9       29.85F
HOUGHTON       CLOUDY    69  61  75 NW9       29.81F
COPPER HARBOR    N/A     67  61  81 CALM      29.80S
$$

ABBREVIATIONS USED IN REMARKS
   TC - TEMPERATURE IN CELSIUS
  WCI - WIND CHILL INDEX
   HX - HEAT INDEX
  VSB - VISIBILITY




USA.gov is the U.S. government's official web portal to all federal, state and local government web resources and services.